Location: Azul
(36.7830°S, 59.8500°W)
Time: 01:51:13
(UTC-03:00)

ISS - Pass Details

Date: 21 April 2017
Orbit: 402 x 406 km, 51.6° (Epoch: 18 December)

Event Time Altitude Azimuth Distance (km) Brightness Sun altitude
Exits shadow 04:35:39 - 98° (E) 1,796 0.3 -35.5°
Enters shadow 05:35:06 -62° 235° (SW) 11,764 3.6 -23.7°
Maximum altitude 06:09:15 60° 316° (NW) 497 -3.7 -16.9°
